Location: Ostrava
(49.8330°N, 18.2830°E)
Time: 05:04:23
(UTC+02:00)

Cosmos 2221 - Visible Passes

Search period start: 30 May 2016 00:00
Search period end: 09 June 2016 00:00
Orbit: 594 x 617 km, 82.5° (Epoch: 29 May)

Date Brightness Start Highest point End Pass type
(mag) Time Alt. Az. Time Alt. Az. Time Alt. Az.
30 May 4.1 00:38:39 10° NNW 00:42:09 24° W 00:43:46 20° WSW visible
30 May 2.7 23:13:48 10° N 23:18:05 59° ENE 23:20:07 29° SSE visible
31 May 4.7 00:52:34 10° NW 00:55:11 16° W 00:57:00 13° WSW visible
31 May 4.8 21:51:12 10° NE 21:53:05 12° ENE 21:54:57 10° E visible
31 May 2.4 23:27:01 10° N 23:31:22 86° W 23:33:22 31° S visible
01 Jun 4.4 22:03:33 10° NNE 22:06:37 19° ENE 22:09:41 10° ESE visible
01 Jun 3.0 23:40:22 10° NNW 23:44:35 53° W 23:46:38 27° SSW visible
02 Jun 3.8 22:16:21 10° N 22:20:05 28° ENE 22:23:01 14° ESE visible
02 Jun 3.7 23:53:51 10° NNW 23:57:44 33° W 23:59:55 20° SW visible
03 Jun 3.1 22:29:21 10° N 22:33:29 43° ENE 22:36:19 18° SE visible
04 Jun 4.4 00:07:33 10° NW 00:10:48 21° W 00:13:12 14° SW visible
04 Jun 2.5 22:42:29 10° N 22:46:48 70° E 22:49:37 21° SSE visible
05 Jun 4.9 00:21:41 10° NW 00:23:48 14° W 00:25:55 10° WSW visible
05 Jun 2.6 22:55:45 10° NNW 23:00:03 73° W 23:02:55 20° S visible
06 Jun 4.1 21:32:04 10° NNE 21:35:24 21° ENE 21:38:42 10° ESE visible
06 Jun 3.3 23:09:08 10° NNW 23:13:14 44° W 23:16:15 17° SSW visible
07 Jun 3.5 21:44:57 10° N 21:48:50 32° ENE 21:52:41 10° SE visible
07 Jun 4.1 23:22:41 10° NNW 23:26:22 28° W 23:29:35 12° SW visible
08 Jun 2.9 21:58:00 10° N 22:02:12 50° ENE 22:06:03 12° SSE visible
08 Jun 4.7 23:36:29 10° NW 23:39:25 18° W 23:42:20 10° SW visible
